Date String (YYYY-MM-DD hh:mm:ss) UTC,Instrument flags,absolute air pressure of the measurement (hPa),sample flow rate (lpm),inlet stack bypass flow (lpm),air temperature of the measurement (°C),ambient temperature measured by the external sensor (°C),aerosol sample conditioner tube jacket temperature (°C),OPC LED temperature (°C),internal box temperature (°C),relative humidity of the measurement (%),span deviation,mass concentration of particles derived from Lorenz-Mie calculation of OPC scattering (μg/m³),mass concentration of particles derived from Lorenz-Mie calculation of OPC scattering (μg/m³),mass concentration of particles derived from Lorenz-Mie calculation of OPC scattering (μg/m³)
DateTimeUTC,F1_M11,P_M11,Q1_M11,Q2_M11,T1_M11,T2_M11,T3_M11,T4_M11,T5_M11,U1_M11,ZSPAN_M11,X2_M11,X0_M11,X1_M11
2023-06-10 01:00:00,SystemResetWarning,0829.4,5.00,000.00,029.4,027.0,000.0,038.1,030.8,24.3,0000.0,0003.33,0008.65,0002.13
2023-06-10 01:01:00,SystemResetWarning,0829.4,5.00,000.00,029.4,027.2,000.0,038.1,030.9,24.1,0000.0,0003.30,0008.38,0002.13
2023-06-10 01:02:00,SystemResetWarning,0829.5,5.00,000.00,029.5,027.4,000.0,038.1,030.9,24.3,0000.0,0003.30,0008.34,0002.12
2023-06-10 01:03:00,SystemResetWarning,0829.4,5.00,000.00,029.5,027.5,000.0,038.1,030.9,24.0,0000.0,0003.35,0008.88,0002.12
2023-06-10 01:04:00,SystemResetWarning,0829.4,5.00,000.00,029.5,027.7,000.0,038.1,031.0,23.7,0000.0,0003.38,0008.48,0002.11
2023-06-10 01:05:00,SystemResetWarning,0829.5,5.00,000.00,029.5,027.8,000.0,038.1,031.0,23.3,0000.0,0003.42,0008.32,0002.11
2023-06-10 01:06:00,SystemResetWarning,0829.4,5.00,000.00,029.5,027.8,000.0,038.1,031.0,23.0,0000.0,0003.40,0008.25,0002.10
2023-06-10 01:07:00,SystemResetWarning,0829.5,5.00,000.00,029.5,027.9,000.0,038.1,031.1,22.9,0000.0,0003.39,0008.27,0002.10
2023-06-10 01:08:00,SystemResetWarning,0829.5,4.99,000.00,029.5,028.0,000.0,038.1,031.1,22.7,0000.0,0003.41,0008.09,0002.11
2023-06-10 01:09:00,SystemResetWarning,0829.5,5.00,000.00,029.6,028.0,000.0,038.1,031.1,22.5,0000.0,0003.38,0008.38,0002.11
2023-06-10 01:10:00,SystemResetWarning,0829.5,5.00,000.00,029.6,028.1,000.0,038.1,031.1,22.6,0000.0,0003.41,0009.04,0002.11
2023-06-10 01:11:00,SystemResetWarning,0829.6,5.00,000.00,029.6,028.1,000.0,038.1,031.1,22.6,0000.0,0003.37,0009.03,0002.12
2023-06-10 01:12:00,SystemResetWarning,0829.6,5.00,000.00,029.6,028.2,000.0,038.1,031.2,22.5,0000.0,0003.37,0009.05,0002.13
2023-06-10 01:13:00,SystemResetWarning,0829.6,5.00,000.00,029.6,028.2,000.0,038.1,031.2,22.5,0000.0,0003.38,0009.32,0002.14
2023-06-10 01:14:00,SystemResetWarning,0829.7,5.01,000.00,029.7,028.2,000.0,038.2,031.2,22.2,0000.0,0003.37,0009.23,0002.14
2023-06-10 01:15:00,SystemResetWarning,0829.7,5.00,000.00,029.7,028.2,000.0,038.2,031.2,22.1,0000.0,0003.34,0008.83,0002.14
2023-06-10 01:16:00,SystemResetWarning,0829.7,5.00,000.00,029.7,028.3,000.0,038.2,031.2,22.2,0000.0,0003.33,0009.44,0002.13
2023-06-10 01:17:00,SystemResetWarning,0829.7,5.00,000.00,029.7,028.3,000.0,038.2,031.3,22.5,0000.0,0003.34,0009.66,0002.14
2023-06-10 01:18:00,SystemResetWarning,0829.7,5.00,000.00,029.7,028.3,000.0,038.2,031.3,22.4,0000.0,0003.32,0009.24,0002.17
2023-06-10 01:19:00,SystemResetWarning,0829.8,4.99,000.00,029.7,028.3,000.0,038.2,031.3,22.7,0000.0,0003.27,0009.16,0002.17
2023-06-10 01:20:00,SystemResetWarning,0829.7,5.00,000.00,029.8,028.4,000.0,038.3,031.3,22.3,0000.0,0003.28,0008.90,0002.16
2023-06-10 01:21:00,SystemResetWarning,0829.7,5.00,000.00,029.8,028.4,000.0,038.3,031.3,22.0,0000.0,0003.27,0008.50,0002.16
2023-06-10 01:22:00,SystemResetWarning,0829.8,5.00,000.00,029.8,028.4,000.0,038.3,031.3,22.1,0000.0,0003.27,0009.02,0002.16
2023-06-10 01:23:00,SystemResetWarning,0829.8,5.00,000.00,029.8,028.4,000.0,038.3,031.4,21.7,0000.0,0003.26,0009.13,0002.15
2023-06-10 01:24:00,SystemResetWarning,0829.8,4.99,000.00,029.8,027.4,000.0,038.3,031.4,21.5,0000.0,0003.24,0008.94,0002.15
2023-06-10 01:25:00,SystemResetWarning,0829.8,5.00,000.00,029.8,025.3,000.0,038.2,031.4,21.2,0000.0,0003.21,0008.46,0002.15
2023-06-10 01:26:00,SystemResetWarning,0829.7,5.01,000.00,029.8,024.8,000.0,038.2,031.2,21.1,0000.0,0003.19,0008.43,0002.14
2023-06-10 01:27:00,SystemResetWarning,0829.7,5.02,000.00,029.7,025.1,000.0,038.2,030.8,21.7,0000.0,0003.17,0007.99,0002.12
2023-06-10 01:28:00,SystemResetWarning,0829.7,4.99,000.00,029.6,025.4,000.0,038.2,030.7,22.0,0000.0,0003.15,0007.89,0002.12
2023-06-10 01:29:00,SystemResetWarning,0829.8,4.99,000.00,029.5,025.9,000.0,038.1,030.7,22.4,0000.0,0003.15,0008.25,0002.10
2023-06-10 01:30:00,SystemResetWarning,0829.8,4.99,000.00,029.5,026.3,000.0,038.1,030.8,22.7,0000.0,0003.14,0008.52,0002.08
2023-06-10 01:31:00,SystemResetWarning,0829.8,5.00,000.00,029.5,026.6,000.0,038.1,030.8,22.8,0000.0,0003.17,0008.79,0002.10
2023-06-10 01:32:00,SystemResetWarning,0829.9,5.00,000.00,029.5,026.9,000.0,038.1,030.9,22.8,0000.0,0003.17,0009.04,0002.12
2023-06-10 01:33:00,SystemResetWarning,0829.9,5.01,000.00,029.5,027.1,000.0,038.1,030.9,22.7,0000.0,0003.17,0009.18,0002.12
2023-06-10 01:34:00,SystemResetWarning,0830.0,5.01,000.00,029.5,027.3,000.0,038.1,030.9,22.6,0000.0,0003.18,0008.65,0002.14
2023-06-10 01:35:00,SystemResetWarning,0830.0,5.00,000.00,029.5,027.5,000.0,038.1,030.9,22.5,0000.0,0003.19,0008.74,0002.14
2023-06-10 01:36:00,SystemResetWarning,0830.0,5.00,000.00,029.5,027.6,000.0,038.1,030.9,22.3,0000.0,0003.21,0008.79,0002.14
2023-06-10 01:37:00,SystemResetWarning,0830.0,5.00,000.00,029.5,027.7,000.0,038.1,031.0,21.9,0000.0,0003.27,0008.94,0002.16
2023-06-10 01:38:00,SystemResetWarning,0830.0,5.00,000.00,029.5,027.8,000.0,038.1,031.0,21.8,0000.0,0003.25,0008.91,0002.17
2023-06-10 01:39:00,SystemResetWarning,0830.0,5.00,000.00,029.5,027.9,000.0,038.1,031.0,21.8,0000.0,0003.29,0008.84,0002.19
2023-06-10 01:40:00,SystemResetWarning,0830.0,4.99,000.00,029.5,028.0,000.0,038.1,031.0,21.7,0000.0,0003.28,0008.31,0002.19
2023-06-10 01:41:00,SystemResetWarning,0829.9,5.00,000.00,029.5,028.0,000.0,038.1,031.1,21.7,0000.0,0003.31,0008.19,0002.20
2023-06-10 01:42:00,SystemResetWarning,0829.9,5.00,000.00,029.6,028.1,000.0,038.1,031.1,21.7,0000.0,0003.27,0008.05,0002.19
2023-06-10 01:43:00,SystemResetWarning,0829.9,5.00,000.00,029.6,028.1,000.0,038.1,031.1,21.6,0000.0,0003.24,0007.64,0002.17
2023-06-10 01:44:00,SystemResetWarning,0829.8,5.01,000.00,029.6,028.2,000.0,038.1,031.1,21.5,0000.0,0003.23,0007.52,0002.16
2023-06-10 01:45:00,SystemResetWarning,0829.8,5.00,000.00,029.6,028.2,000.0,038.1,031.1,21.4,0000.0,0003.22,0007.50,0002.15
2023-06-10 01:46:00,SystemResetWarning,0829.8,5.00,000.00,029.6,028.2,000.0,038.2,031.2,21.3,0000.0,0003.23,0007.43,0002.14
2023-06-10 01:47:00,SystemResetWarning,0829.8,5.00,000.00,029.7,028.3,000.0,038.2,031.2,21.3,0000.0,0003.21,0007.37,0002.13
2023-06-10 01:48:00,SystemResetWarning,0829.8,5.00,000.00,029.7,028.3,000.0,038.2,031.2,21.1,0000.0,0003.19,0007.32,0002.13
2023-06-10 01:49:00,SystemResetWarning,0829.9,5.00,000.00,029.7,028.3,000.0,038.2,031.3,21.0,0000.0,0003.19,0007.68,0002.14
2023-06-10 01:50:00,SystemResetWarning,0829.9,5.00,000.00,029.7,028.4,000.0,038.2,031.3,20.9,0000.0,0003.17,0007.91,0002.15
2023-06-10 01:51:00,SystemResetWarning,0829.9,5.00,000.00,029.8,028.4,000.0,038.2,031.3,20.5,0000.0,0003.16,0008.23,0002.14
2023-06-10 01:52:00,SystemResetWarning,0830.0,5.00,000.00,029.8,028.4,000.0,038.3,031.3,20.3,0000.0,0003.15,0008.28,0002.13
2023-06-10 01:53:00,SystemResetWarning,0830.0,5.01,000.00,029.8,028.4,000.0,038.3,031.3,20.3,0000.0,0003.14,0008.09,0002.14
2023-06-10 01:54:00,SystemResetWarning,0830.0,5.01,000.00,029.8,028.4,000.0,038.3,031.3,20.3,0000.0,0003.13,0008.00,0002.14
2023-06-10 01:55:00,SystemResetWarning,0830.0,5.00,000.00,029.8,028.5,000.0,038.3,031.4,20.6,0000.0,0003.07,0007.59,0002.12
2023-06-10 01:56:00,SystemResetWarning,0830.1,5.01,000.00,029.9,028.5,000.0,038.3,031.4,20.7,0000.0,0003.09,0007.60,0002.12
2023-06-10 01:57:00,SystemResetWarning,0830.0,5.00,000.00,029.9,028.5,000.0,038.3,031.4,20.7,0000.0,0003.02,0007.50,0002.12
2023-06-10 01:58:00,SystemResetWarning,0830.1,4.99,000.00,029.9,028.4,000.0,038.4,031.4,20.6,0000.0,0002.96,0007.46,0002.10
2023-06-10 01:59:00,SystemResetWarning,0830.0,4.99,000.00,029.9,026.6,000.0,038.3,031.4,20.5,0000.0,0002.94,0007.57,0002.10
